Tracking 19720 objects as of 26-Jun-2019
HD Live streaming from Space Station
objects crossing your sky now

LEMUR 2 FURIAUS

Track LEMUR 2 FURIAUS now!
10-day predictions
LEMUR 2 FURIAUS is classified as:


NORAD ID: 42840
Int'l Code: 2017-042R
Perigee: 589.3 km
Apogee: 609.1 km
Inclination: 97.6 °
Period: 96.5 minutes
Semi major axis: 6970 km
RCS: Unknown
Launch date: July 14, 2017
Source: United States (US)
Launch site: TYURATAM MISSILE AND SPACE COMPLEX (TTMTR)
aabbcc
Your satellite tracking list
Your tracking list is empty




NASA's NSSDC Master Catalog

Two Line Element Set (TLE):
1 42840U 17042R   19176.50376680  .00000169  00000-0  22005-4 0  9990
2 42840  97.5661  69.9858 0014228  38.8501 321.3738 14.91884025106007
Source of the keplerian elements: AFSPC